| time (UTC) | temp C | wind direction | speed KPH | gust KPH | rain 1hr cm | rain 24hr cm | rain mn cm | humidity % | barometer mb |
| 20260504194843 | 18 | 166 | 8.0 | 19.3 | 0.00 | 0.00 | 0.00 | 55 | 1007.1 |
| 20260504194643 | 18 | 153 | 6.4 | 16.1 | 0.00 | 0.00 | 0.00 | 53 | 1007.1 |
| 20260504194443 | 18 | 173 | 6.4 | 14.5 | 0.00 | 0.00 | 0.00 | 53 | 1007.1 |
| 20260504194243 | 18 | 186 | 6.4 | 14.5 | 0.00 | 0.00 | 0.00 | 53 | 1007.2 |
| 20260504194044 | 18 | 183 | 8.0 | 20.9 | 0.00 | 0.00 | 0.00 | 54 | 1007.2 |
| 20260504193904 | 18 | 174 | 8.0 | 20.9 | 0.00 | 0.00 | 0.00 | 53 | 1007.2 |
| 20260504193644 | 18 | 249 | 9.7 | 20.9 | 0.00 | 0.00 | 0.00 | 53 | 1007.2 |
| 20260504193443 | 18 | 156 | 9.7 | 20.9 | 0.00 | 0.00 | 0.00 | 53 | 1007.1 |
| 20260504193243 | 18 | 177 | 11.3 | 20.9 | 0.00 | 0.00 | 0.00 | 52 | 1007.2 |
| 20260504193043 | 18 | 153 | 9.7 | 19.3 | 0.00 | 0.00 | 0.00 | 52 | 1007.2 |
| 20260504192843 | 18 | 165 | 9.7 | 19.3 | 0.00 | 0.00 | 0.00 | 53 | 1007.3 |
| 20260504192643 | 18 | 171 | 9.7 | 19.3 | 0.00 | 0.00 | 0.00 | 52 | 1007.3 |
| 20260504192442 | 18 | 167 | 9.7 | 19.3 | 0.00 | 0.00 | 0.00 | 52 | 1007.2 |
| 20260504192242 | 18 | 173 | 9.7 | 19.3 | 0.00 | 0.00 | 0.00 | 51 | 1007.3 |
| 20260504192042 | 18 | 175 | 9.7 | 22.5 | 0.00 | 0.00 | 0.00 | 52 | 1007.3 |
| 20260504191842 | 18 | 176 | 9.7 | 22.5 | 0.00 | 0.00 | 0.00 | 51 | 1007.3 |
| 20260504191641 | 18 | 179 | 11.3 | 22.5 | 0.00 | 0.00 | 0.00 | 51 | 1007.3 |
| 20260504191442 | 18 | 171 | 9.7 | 22.5 | 0.00 | 0.00 | 0.00 | 52 | 1007.4 |
| 20260504191240 | 18 | 176 | 9.7 | 22.5 | 0.00 | 0.00 | 0.00 | 50 | 1007.4 |
| 20260504191041 | 18 | 163 | 8.0 | 17.7 | 0.00 | 0.00 | 0.00 | 50 | 1007.3 |
| 20260504190840 | 19 | 171 | 8.0 | 20.9 | 0.00 | 0.00 | 0.00 | 48 | 1007.3 |
| 20260504190640 | 19 | 163 | 6.4 | 20.9 | 0.00 | 0.00 | 0.00 | 48 | 1007.3 |
| 20260504190441 | 19 | 134 | 6.4 | 20.9 | 0.00 | 0.00 | 0.00 | 48 | 1007.3 |
| 20260504190240 | 19 | 160 | 6.4 | 20.9 | 0.00 | 0.00 | 0.00 | 48 | 1007.3 |
| 20260504190041 | 19 | 147 | 6.4 | 20.9 | 0.00 | 0.00 | 0.00 | 47 | 1007.2 |
| 20260504185841 | 19 | 192 | 6.4 | 17.7 | 0.00 | 0.00 | 0.00 | 48 | 1007.4 |
| 20260504185640 | 18 | 186 | 6.4 | 17.7 | 0.00 | 0.00 | 0.00 | 48 | 1007.4 |
| 20260504185441 | 18 | 183 | 6.4 | 17.7 | 0.00 | 0.00 | 0.00 | 48 | 1007.4 |
| 20260504185241 | 19 | 174 | 8.0 | 17.7 | 0.00 | 0.00 | 0.00 | 49 | 1007.5 |
| 20260504185042 | 19 | 152 | 8.0 | 17.7 | 0.00 | 0.00 | 0.00 | 49 | 1007.5 |
| 20260504184842 | 19 | 180 | 6.4 | 16.1 | 0.00 | 0.00 | 0.00 | 50 | 1007.5 |
| 20260504184641 | 19 | 225 | 6.4 | 16.1 | 0.00 | 0.00 | 0.00 | 49 | 1007.6 |
| 20260504184441 | 20 | 186 | 6.4 | 16.1 | 0.00 | 0.00 | 0.00 | 48 | 1007.6 |
| 20260504184240 | 20 | 194 | 6.4 | 12.9 | 0.00 | 0.00 | 0.00 | 47 | 1007.6 |
| 20260504184041 | 20 | 177 | 6.4 | 14.5 | 0.00 | 0.00 | 0.00 | 47 | 1007.7 |
| 20260504183841 | 19 | 175 | 6.4 | 14.5 | 0.00 | 0.00 | 0.00 | 48 | 1007.7 |
| 20260504183641 | 19 | 187 | 8.0 | 14.5 | 0.00 | 0.00 | 0.00 | 47 | 1007.6 |
| 20260504183441 | 19 | 184 | 8.0 | 14.5 | 0.00 | 0.00 | 0.00 | 46 | 1007.7 |
| 20260504183241 | 19 | 190 | 6.4 | 14.5 | 0.00 | 0.00 | 0.00 | 45 | 1007.7 |
| 20260504183041 | 19 | 195 | 6.4 | 14.5 | 0.00 | 0.00 | 0.00 | 45 | 1007.6 |
| 20260504182841 | 20 | 185 | 6.4 | 14.5 | 0.00 | 0.00 | 0.00 | 47 | 1007.7 |
| 20260504182641 | 19 | 249 | 6.4 | 14.5 | 0.00 | 0.00 | 0.00 | 47 | 1007.6 |
| 20260504182441 | 19 | 170 | 6.4 | 17.7 | 0.00 | 0.00 | 0.00 | 46 | 1007.6 |
| 20260504182241 | 19 | 109 | 8.0 | 17.7 | 0.00 | 0.00 | 0.00 | 45 | 1007.6 |
| 20260504182041 | 19 | 178 | 8.0 | 17.7 | 0.00 | 0.00 | 0.00 | 45 | 1007.6 |
| 20260504181842 | 19 | 163 | 8.0 | 19.3 | 0.00 | 0.00 | 0.00 | 46 | 1007.6 |
| 20260504181641 | 19 | 167 | 8.0 | 19.3 | 0.00 | 0.00 | 0.00 | 45 | 1007.7 |
| 20260504181441 | 19 | 288 | 8.0 | 19.3 | 0.00 | 0.00 | 0.00 | 46 | 1007.6 |
| 20260504181241 | 19 | 186 | 8.0 | 19.3 | 0.00 | 0.00 | 0.00 | 46 | 1007.6 |
| 20260504181042 | 19 | 175 | 9.7 | 19.3 | 0.00 | 0.00 | 0.00 | 45 | 1007.6 |
| 20260504180901 | 19 | 178 | 9.7 | 19.3 | 0.00 | 0.00 | 0.00 | 45 | 1007.7 |
| 20260504180642 | 19 | 155 | 8.0 | 17.7 | 0.00 | 0.00 | 0.00 | 44 | 1007.7 |
| 20260504180441 | 19 | 175 | 8.0 | 17.7 | 0.00 | 0.00 | 0.00 | 43 | 1007.7 |
| 20260504180242 | 19 | 177 | 8.0 | 17.7 | 0.00 | 0.00 | 0.00 | 43 | 1007.7 |
| 20260504180039 | 19 | 178 | 8.0 | 17.7 | 0.00 | 0.00 | 0.00 | 44 | 1007.7 |
| 20260504175839 | 19 | 225 | 8.0 | 17.7 | 0.00 | 0.00 | 0.00 | 44 | 1007.6 |
| 20260504175639 | 20 | 193 | 8.0 | 17.7 | 0.00 | 0.00 | 0.00 | 42 | 1007.6 |
| 20260504175439 | 19 | 276 | 6.4 | 17.7 | 0.00 | 0.00 | 0.00 | 42 | 1007.7 |
| 20260504175239 | 19 | 264 | 8.0 | 17.7 | 0.00 | 0.00 | 0.00 | 42 | 1007.7 |
| 20260504175039 | 19 | 192 | 8.0 | 17.7 | 0.00 | 0.00 | 0.00 | 43 | 1007.6 |
| 20260504174839 | 19 | 193 | 8.0 | 17.7 | 0.00 | 0.00 | 0.00 | 44 | 1007.7 |
| 20260504174638 | 19 | 242 | 6.4 | 14.5 | 0.00 | 0.00 | 0.00 | 45 | 1007.7 |
| 20260504174438 | 19 | 223 | 6.4 | 19.3 | 0.00 | 0.00 | 0.00 | 45 | 1007.7 |
| 20260504174239 | 19 | 88 | 6.4 | 19.3 | 0.00 | 0.00 | 0.00 | 44 | 1007.8 |
| 20260504174040 | 19 | 172 | 6.4 | 19.3 | 0.00 | 0.00 | 0.00 | 44 | 1007.9 |
| 20260504173839 | 19 | 211 | 6.4 | 19.3 | 0.00 | 0.00 | 0.00 | 45 | 1007.8 |
| 20260504173639 | 19 | 180 | 6.4 | 19.3 | 0.00 | 0.00 | 0.00 | 46 | 1007.8 |
| 20260504173439 | 19 | 191 | 6.4 | 17.7 | 0.00 | 0.00 | 0.00 | 44 | 1007.9 |
| 20260504173239 | 19 | 172 | 6.4 | 17.7 | 0.00 | 0.00 | 0.00 | 45 | 1007.8 |
| 20260504173039 | 19 | 206 | 6.4 | 17.7 | 0.00 | 0.00 | 0.00 | 43 | 1007.9 |
| 20260504172858 | 19 | 195 | 6.4 | 17.7 | 0.00 | 0.00 | 0.00 | 45 | 1007.9 |
| 20260504172639 | 19 | 275 | 6.4 | 17.7 | 0.00 | 0.00 | 0.00 | 44 | 1007.9 |
| 20260504172439 | 19 | 182 | 6.4 | 19.3 | 0.00 | 0.00 | 0.00 | 43 | 1008.0 |
| 20260504172239 | 19 | 165 | 6.4 | 19.3 | 0.00 | 0.00 | 0.00 | 44 | 1007.9 |
| 20260504172040 | 19 | 192 | 6.4 | 19.3 | 0.00 | 0.00 | 0.00 | 43 | 1008.0 |
| 20260504171839 | 18 | 190 | 6.4 | 19.3 | 0.00 | 0.00 | 0.00 | 45 | 1008.1 |
| 20260504171640 | 18 | 280 | 6.4 | 19.3 | 0.00 | 0.00 | 0.00 | 44 | 1008.1 |
| 20260504171440 | 18 | 227 | 8.0 | 19.3 | 0.00 | 0.00 | 0.00 | 44 | 1008.0 |
| 20260504171239 | 18 | 167 | 8.0 | 16.1 | 0.00 | 0.00 | 0.00 | 44 | 1008.1 |
| 20260504171039 | 18 | 183 | 8.0 | 17.7 | 0.00 | 0.00 | 0.00 | 44 | 1008.1 |
| 20260504170859 | 18 | 169 | 8.0 | 17.7 | 0.00 | 0.00 | 0.00 | 43 | 1008.2 |
| 20260504170639 | 18 | 173 | 8.0 | 17.7 | 0.00 | 0.00 | 0.00 | 43 | 1008.2 |
| 20260504170439 | 18 | 171 | 8.0 | 17.7 | 0.00 | 0.00 | 0.00 | 43 | 1008.3 |
| 20260504170240 | 18 | 189 | 6.4 | 17.7 | 0.00 | 0.00 | 0.00 | 43 | 1008.2 |
| 20260504160433 | 18 | 292 | 6.4 | 20.9 | 0.00 | 0.00 | 0.00 | 39 | 1008.9 |
| 20260504160234 | 18 | 172 | 6.4 | 20.9 | 0.00 | 0.00 | 0.00 | 39 | 1008.9 |
| 20260504151020 | 18 | 50 | 6.4 | 14.5 | 0.00 | 0.00 | 0.00 | 40 | 1009.5 |
| 20260504150853 | 18 | 202 | 6.4 | 14.5 | 0.00 | 0.00 | 0.00 | 40 | 1009.4 |
| 20260504150620 | 18 | 186 | 6.4 | 14.5 | 0.00 | 0.00 | 0.00 | 39 | 1009.5 |
| 20260504150420 | 18 | 200 | 4.8 | 14.5 | 0.00 | 0.00 | 0.00 | 40 | 1009.6 |
| 20260504150220 | 18 | 198 | 6.4 | 14.5 | 0.00 | 0.00 | 0.00 | 39 | 1009.6 |
| 20260504141215 | 17 | 166 | 6.4 | 16.1 | 0.00 | 0.00 | 0.00 | 43 | 1009.6 |
| 20260504141015 | 17 | 205 | 6.4 | 16.1 | 0.00 | 0.00 | 0.00 | 43 | 1009.6 |
| 20260504140815 | 17 | 201 | 6.4 | 14.5 | 0.00 | 0.00 | 0.00 | 44 | 1009.6 |
| 20260504140616 | 17 | 197 | 6.4 | 14.5 | 0.00 | 0.00 | 0.00 | 44 | 1009.6 |
| 20260504140415 | 17 | 197 | 6.4 | 14.5 | 0.00 | 0.00 | 0.00 | 44 | 1009.6 |
| 20260504140215 | 17 | 182 | 6.4 | 12.9 | 0.00 | 0.00 | 0.00 | 43 | 1009.6 |
| 20260504130804 | 15 | 236 | 4.8 | 14.5 | 0.00 | 0.00 | 0.00 | 49 | 1010.0 |
| 20260504130603 | 15 | 164 | 4.8 | 14.5 | 0.00 | 0.00 | 0.00 | 50 | 1010.1 |
| 20260504130404 | 15 | 184 | 4.8 | 14.5 | 0.00 | 0.00 | 0.00 | 50 | 1010.1 |
| 20260504130204 | 15 | 203 | 4.8 | 14.5 | 0.00 | 0.00 | 0.00 | 50 | 1010.0 |
| 20260504120155 | 12 | 184 | 3.2 | 11.3 | 0.00 | 0.00 | 0.00 | 57 | 1010.2 |
| 20260504110550 | 11 | 174 | 3.2 | 8.0 | 0.00 | 0.00 | 0.00 | 59 | 1010.2 |
| 20260504110351 | 10 | 206 | 3.2 | 8.0 | 0.00 | 0.00 | 0.00 | 59 | 1010.1 |
| 20260504110150 | 10 | 166 | 3.2 | 8.0 | 0.00 | 0.00 | 0.00 | 59 | 1010.2 |
| 20260504100543 | 9 | 169 | 3.2 | 6.4 | 0.00 | 0.00 | 0.00 | 61 | 1010.0 |
| 20260504100341 | 8 | 235 | 3.2 | 6.4 | 0.00 | 0.00 | 0.00 | 61 | 1009.9 |
| 20260504100142 | 8 | 188 | 3.2 | 6.4 | 0.00 | 0.00 | 0.00 | 61 | 1010.0 |
| 20260504081926 | 10 | 171 | 3.2 | 8.0 | 0.00 | 0.00 | 0.00 | 52 | 1009.3 |
| 20260504081726 | 10 | 217 | 3.2 | 8.0 | 0.00 | 0.00 | 0.00 | 52 | 1009.3 |
| 20260504081525 | 10 | 213 | 1.6 | 8.0 | 0.00 | 0.00 | 0.00 | 52 | 1009.4 |
| 20260504081325 | 10 | 236 | 1.6 | 8.0 | 0.00 | 0.00 | 0.00 | 53 | 1009.4 |
| 20260504081125 | 10 | 210 | 1.6 | 4.8 | 0.00 | 0.00 | 0.00 | 53 | 1009.4 |
| 20260504080925 | 10 | 0 | 1.6 | 8.0 | 0.00 | 0.00 | 0.00 | 53 | 1009.3 |
| 20260504080723 | 10 | 194 | 1.6 | 8.0 | 0.00 | 0.00 | 0.00 | 53 | 1009.3 |
| 20260504080522 | 10 | 222 | 3.2 | 8.0 | 0.00 | 0.00 | 0.00 | 53 | 1009.3 |
| 20260504080323 | 10 | 247 | 3.2 | 11.3 | 0.00 | 0.00 | 0.00 | 53 | 1009.2 |
| 20260504080123 | 10 | 197 | 3.2 | 11.3 | 0.00 | 0.00 | 0.00 | 53 | 1009.2 |
| 20260504070317 | 10 | 231 | 1.6 | 6.4 | 0.00 | 0.00 | 0.00 | 54 | 1008.8 |
| 20260504070118 | 10 | 250 | 1.6 | 6.4 | 0.00 | 0.00 | 0.00 | 53 | 1008.8 |
| 20260504060112 | 9 | 0 | 1.6 | 3.2 | 0.00 | 0.00 | 0.00 | 62 | 1008.9 |
| 20260504050456 | 9 | 244 | 1.6 | 3.2 | 0.00 | 0.00 | 0.00 | 60 | 1008.6 |
| 20260504050314 | 9 | 194 | 1.6 | 3.2 | 0.00 | 0.00 | 0.00 | 60 | 1008.6 |
| 20260504045853 | 9 | 191 | 1.6 | 3.2 | 0.00 | 0.00 | 0.00 | 60 | 1008.6 |
| 20260504045653 | 9 | 195 | 1.6 | 3.2 | 0.00 | 0.00 | 0.00 | 60 | 1008.6 |
| 20260504045454 | 10 | 189 | 1.6 | 3.2 | 0.00 | 0.00 | 0.00 | 60 | 1008.6 |
| 20260504045254 | 10 | 228 | 1.6 | 4.8 | 0.00 | 0.00 | 0.00 | 60 | 1008.6 |
| 20260504045054 | 10 | 197 | 1.6 | 4.8 | 0.00 | 0.00 | 0.00 | 60 | 1008.6 |
| 20260504044853 | 9 | 203 | 1.6 | 4.8 | 0.00 | 0.00 | 0.00 | 60 | 1008.6 |
| 20260504044653 | 9 | 188 | 1.6 | 4.8 | 0.00 | 0.00 | 0.00 | 60 | 1008.6 |
| 20260504044454 | 9 | 207 | 1.6 | 4.8 | 0.00 | 0.00 | 0.00 | 60 | 1008.6 |
| 20260504044254 | 9 | 179 | 1.6 | 4.8 | 0.00 | 0.00 | 0.00 | 60 | 1008.5 |
| 20260504044053 | 9 | 206 | 1.6 | 4.8 | 0.00 | 0.00 | 0.00 | 61 | 1008.5 |
| 20260504043855 | 9 | 195 | 1.6 | 4.8 | 0.00 | 0.00 | 0.00 | 61 | 1008.5 |
| 20260504043655 | 9 | 203 | 1.6 | 4.8 | 0.00 | 0.00 | 0.00 | 61 | 1008.5 |
| 20260504043454 | 9 | 193 | 1.6 | 3.2 | 0.00 | 0.00 | 0.00 | 61 | 1008.5 |
| 20260504043254 | 9 | 185 | 1.6 | 3.2 | 0.00 | 0.00 | 0.00 | 61 | 1008.5 |
| 20260504043054 | 9 | 185 | 1.6 | 3.2 | 0.00 | 0.00 | 0.00 | 62 | 1008.5 |
| 20260504042854 | 8 | 207 | 1.6 | 3.2 | 0.00 | 0.00 | 0.00 | 62 | 1008.5 |
| 20260504042654 | 8 | 206 | 0.0 | 3.2 | 0.00 | 0.00 | 0.00 | 62 | 1008.5 |
| 20260504042454 | 8 | 170 | 1.6 | 3.2 | 0.00 | 0.00 | 0.00 | 61 | 1008.4 |
| 20260504042254 | 8 | 205 | 1.6 | 3.2 | 0.00 | 0.00 | 0.00 | 62 | 1008.5 |
| 20260504042055 | 8 | 206 | 1.6 | 3.2 | 0.00 | 0.00 | 0.00 | 61 | 1008.5 |
| 20260504041854 | 8 | 234 | 1.6 | 3.2 | 0.00 | 0.00 | 0.00 | 61 | 1008.5 |
| 20260504041654 | 8 | 183 | 1.6 | 3.2 | 0.00 | 0.00 | 0.00 | 61 | 1008.4 |
| 20260504041454 | 8 | 249 | 1.6 | 3.2 | 0.00 | 0.00 | 0.00 | 60 | 1008.4 |
| 20260504041254 | 8 | 0 | 0.0 | 3.2 | 0.00 | 0.00 | 0.00 | 60 | 1008.4 |
| 20260504041054 | 8 | 199 | 0.0 | 1.6 | 0.00 | 0.00 | 0.00 | 59 | 1008.4 |
| 20260504040855 | 8 | 227 | 0.0 | 1.6 | 0.00 | 0.00 | 0.00 | 60 | 1008.4 |
| 20260504040653 | 8 | 203 | 0.0 | 1.6 | 0.00 | 0.00 | 0.00 | 60 | 1008.4 |
| 20260504040453 | 8 | 0 | 0.0 | 3.2 | 0.00 | 0.00 | 0.00 | 60 | 1008.4 |
| 20260504040254 | 8 | 0 | 0.0 | 3.2 | 0.00 | 0.00 | 0.00 | 59 | 1008.4 |
| 20260504040053 | 8 | 0 | 0.0 | 3.2 | 0.00 | 0.00 | 0.00 | 59 | 1008.4 |
| 20260504035853 | 8 | 198 | 0.0 | 3.2 | 0.00 | 0.00 | 0.00 | 59 | 1008.4 |
| 20260504035653 | 8 | 0 | 0.0 | 3.2 | 0.00 | 0.00 | 0.00 | 59 | 1008.4 |
| 20260504035451 | 8 | 200 | 0.0 | 3.2 | 0.00 | 0.00 | 0.00 | 59 | 1008.4 |
| 20260504035250 | 8 | 0 | 1.6 | 3.2 | 0.00 | 0.00 | 0.00 | 59 | 1008.4 |
| 20260504035048 | 8 | 223 | 1.6 | 3.2 | 0.00 | 0.00 | 0.00 | 59 | 1008.3 |
| 20260504034848 | 8 | 248 | 1.6 | 3.2 | 0.00 | 0.00 | 0.00 | 60 | 1008.3 |
| 20260504034648 | 8 | 211 | 1.6 | 3.2 | 0.00 | 0.00 | 0.00 | 60 | 1008.3 |
| 20260504034448 | 8 | 215 | 1.6 | 3.2 | 0.00 | 0.00 | 0.00 | 60 | 1008.4 |
| 20260504034248 | 7 | 234 | 1.6 | 3.2 | 0.00 | 0.00 | 0.00 | 60 | 1008.3 |
| 20260504034048 | 7 | 224 | 0.0 | 3.2 | 0.00 | 0.00 | 0.00 | 62 | 1008.3 |
| 20260504033848 | 7 | 0 | 0.0 | 3.2 | 0.00 | 0.00 | 0.00 | 63 | 1008.3 |
| 20260504033649 | 7 | 234 | 0.0 | 1.6 | 0.00 | 0.00 | 0.00 | 63 | 1008.3 |
| 20260504033448 | 7 | 0 | 0.0 | 1.6 | 0.00 | 0.00 | 0.00 | 64 | 1008.2 |
| 20260504033248 | 7 | 0 | 0.0 | 1.6 | 0.00 | 0.00 | 0.00 | 64 | 1008.2 |
| 20260504033049 | 7 | 345 | 0.0 | 1.6 | 0.00 | 0.00 | 0.00 | 64 | 1008.2 |
| 20260504032848 | 7 | 292 | 0.0 | 1.6 | 0.00 | 0.00 | 0.00 | 64 | 1008.2 |
| 20260504032648 | 7 | 0 | 0.0 | 1.6 | 0.00 | 0.00 | 0.00 | 63 | 1008.2 |
| 20260504032448 | 7 | 0 | 0.0 | 1.6 | 0.00 | 0.00 | 0.00 | 63 | 1008.2 |
| 20260504032308 | 7 | 298 | 0.0 | 1.6 | 0.00 | 0.00 | 0.00 | 63 | 1008.2 |
| 20260504032049 | 7 | 0 | 0.0 | 1.6 | 0.00 | 0.00 | 0.00 | 63 | 1008.3 |
| 20260504031848 | 7 | 0 | 0.0 | 1.6 | 0.00 | 0.00 | 0.00 | 62 | 1008.3 |
| 20260504031648 | 7 | 0 | 0.0 | 1.6 | 0.00 | 0.00 | 0.00 | 61 | 1008.3 |
| 20260504031448 | 8 | 0 | 0.0 | 1.6 | 0.00 | 0.00 | 0.00 | 61 | 1008.2 |
| 20260504031248 | 8 | 0 | 0.0 | 1.6 | 0.00 | 0.00 | 0.00 | 61 | 1008.3 |
| 20260504031048 | 8 | 0 | 0.0 | 1.6 | 0.00 | 0.00 | 0.00 | 60 | 1008.3 |
| 20260504030848 | 8 | 0 | 0.0 | 1.6 | 0.00 | 0.00 | 0.00 | 60 | 1008.2 |
| 20260504030648 | 8 | 0 | 0.0 | 0.0 | 0.00 | 0.00 | 0.00 | 57 | 1008.3 |
| 20260504030449 | 8 | 0 | 0.0 | 1.6 | 0.00 | 0.00 | 0.00 | 58 | 1008.3 |
| 20260504030249 | 8 | 0 | 0.0 | 3.2 | 0.00 | 0.00 | 0.00 | 59 | 1008.3 |
| 20260504030048 | 8 | 0 | 0.0 | 3.2 | 0.00 | 0.00 | 0.00 | 60 | 1008.3 |
| 20260504025848 | 8 | 0 | 0.0 | 3.2 | 0.00 | 0.00 | 0.00 | 60 | 1008.3 |
| 20260504025649 | 8 | 0 | 0.0 | 3.2 | 0.00 | 0.00 | 0.00 | 59 | 1008.3 |
| 20260504025448 | 8 | 0 | 0.0 | 3.2 | 0.00 | 0.00 | 0.00 | 58 | 1008.3 |
| 20260504025307 | 8 | 0 | 0.0 | 1.6 | 0.00 | 0.00 | 0.00 | 57 | 1008.2 |
| 20260504025048 | 8 | 0 | 0.0 | 1.6 | 0.00 | 0.00 | 0.00 | 57 | 1008.2 |
| 20260504024848 | 8 | 0 | 0.0 | 1.6 | 0.00 | 0.00 | 0.00 | 56 | 1008.2 |
| 20260504024648 | 9 | 0 | 0.0 | 1.6 | 0.00 | 0.00 | 0.00 | 55 | 1008.2 |
| 20260504024448 | 9 | 0 | 0.0 | 1.6 | 0.00 | 0.00 | 0.00 | 55 | 1008.2 |
| 20260504024248 | 9 | 0 | 0.0 | 1.6 | 0.00 | 0.00 | 0.00 | 54 | 1008.2 |
| 20260504024046 | 9 | 31 | 0.0 | 1.6 | 0.00 | 0.00 | 0.00 | 53 | 1008.2 |
| 20260504023845 | 9 | 0 | 0.0 | 0.0 | 0.00 | 0.00 | 0.00 | 52 | 1008.3 |
| 20260504023643 | 10 | 0 | 0.0 | 1.6 | 0.00 | 0.00 | 0.00 | 52 | 1008.3 |
| 20260504023439 | 10 | 0 | 0.0 | 1.6 | 0.00 | 0.00 | 0.00 | 53 | 1008.3 |
| 20260504023239 | 10 | 0 | 0.0 | 3.2 | 0.00 | 0.00 | 0.00 | 54 | 1008.4 |
| 20260504023040 | 10 | 0 | 0.0 | 3.2 | 0.00 | 0.00 | 0.00 | 51 | 1008.4 |
| 20260504022840 | 10 | 0 | 0.0 | 3.2 | 0.00 | 0.00 | 0.00 | 50 | 1008.4 |
| 20260504022640 | 10 | 0 | 0.0 | 3.2 | 0.00 | 0.00 | 0.00 | 48 | 1008.3 |
| 20260504022439 | 10 | 0 | 0.0 | 3.2 | 0.00 | 0.00 | 0.00 | 49 | 1008.3 |
| 20260504022304 | 10 | 221 | 0.0 | 3.2 | 0.00 | 0.00 | 0.00 | 51 | 1008.3 |
| 20260504022040 | 10 | 0 | 0.0 | 1.6 | 0.00 | 0.00 | 0.00 | 48 | 1008.3 |
| 20260504021840 | 10 | 0 | 0.0 | 4.8 | 0.00 | 0.00 | 0.00 | 47 | 1008.3 |
| 20260504021640 | 10 | 0 | 0.0 | 4.8 | 0.00 | 0.00 | 0.00 | 50 | 1008.3 |
| 20260504021440 | 11 | 310 | 0.0 | 4.8 | 0.00 | 0.00 | 0.00 | 47 | 1008.3 |
| 20260504021240 | 11 | 0 | 1.6 | 4.8 | 0.00 | 0.00 | 0.00 | 47 | 1008.3 |
| 20260504021040 | 11 | 0 | 1.6 | 4.8 | 0.00 | 0.00 | 0.00 | 45 | 1008.3 |
| 20260504020841 | 11 | 247 | 1.6 | 4.8 | 0.00 | 0.00 | 0.00 | 44 | 1008.3 |
| 20260504020640 | 11 | 0 | 1.6 | 4.8 | 0.00 | 0.00 | 0.00 | 44 | 1008.3 |
| 20260504020441 | 11 | 212 | 3.2 | 4.8 | 0.00 | 0.00 | 0.00 | 44 | 1008.3 |
| 20260504020240 | 11 | 233 | 3.2 | 4.8 | 0.00 | 0.00 | 0.00 | 44 | 1008.3 |
| 20260504020041 | 11 | 220 | 3.2 | 4.8 | 0.00 | 0.00 | 0.00 | 44 | 1008.2 |
| 20260504015837 | 11 | 243 | 1.6 | 4.8 | 0.00 | 0.00 | 0.00 | 44 | 1008.2 |
| 20260504015634 | 11 | 241 | 1.6 | 4.8 | 0.00 | 0.00 | 0.00 | 45 | 1008.2 |
| 20260504015432 | 11 | 251 | 1.6 | 4.8 | 0.00 | 0.00 | 0.00 | 46 | 1008.2 |
| 20260504015229 | 11 | 199 | 1.6 | 3.2 | 0.00 | 0.00 | 0.00 | 46 | 1008.2 |
| 20260504015028 | 11 | 194 | 1.6 | 3.2 | 0.00 | 0.00 | 0.00 | 46 | 1008.2 |
| 20260504014829 | 11 | 236 | 1.6 | 4.8 | 0.00 | 0.00 | 0.00 | 46 | 1008.2 |
| 20260504014628 | 11 | 286 | 1.6 | 4.8 | 0.00 | 0.00 | 0.00 | 45 | 1008.2 |
| 20260504014426 | 11 | 233 | 1.6 | 6.4 | 0.00 | 0.00 | 0.00 | 45 | 1008.2 |
| 20260504014300 | 11 | 317 | 3.2 | 6.4 | 0.00 | 0.00 | 0.00 | 45 | 1008.2 |
| 20260504014026 | 11 | 217 | 3.2 | 6.4 | 0.00 | 0.00 | 0.00 | 45 | 1008.2 |
| 20260504013826 | 11 | 235 | 3.2 | 6.4 | 0.00 | 0.00 | 0.00 | 43 | 1008.1 |
| 20260504013626 | 11 | 233 | 3.2 | 6.4 | 0.00 | 0.00 | 0.00 | 44 | 1008.1 |
| 20260504013425 | 11 | 261 | 3.2 | 6.4 | 0.00 | 0.00 | 0.00 | 45 | 1008.1 |
| 20260504013301 | 11 | 219 | 3.2 | 6.4 | 0.00 | 0.00 | 0.00 | 44 | 1008.1 |
| 20260504013027 | 11 | 262 | 1.6 | 6.4 | 0.00 | 0.00 | 0.00 | 45 | 1008.0 |
| 20260504012826 | 11 | 218 | 1.6 | 3.2 | 0.00 | 0.00 | 0.00 | 45 | 1008.0 |
| 20260504012626 | 11 | 211 | 1.6 | 3.2 | 0.00 | 0.00 | 0.00 | 48 | 1008.0 |
| 20260504012426 | 11 | 260 | 1.6 | 3.2 | 0.00 | 0.00 | 0.00 | 45 | 1007.9 |
| 20260504012227 | 11 | 242 | 1.6 | 3.2 | 0.00 | 0.00 | 0.00 | 46 | 1007.9 |
| 20260504012028 | 11 | 205 | 1.6 | 3.2 | 0.00 | 0.00 | 0.00 | 44 | 1007.9 |
| 20260504011828 | 11 | 213 | 0.0 | 3.2 | 0.00 | 0.00 | 0.00 | 45 | 1007.9 |
| 20260504011627 | 11 | 196 | 0.0 | 3.2 | 0.00 | 0.00 | 0.00 | 43 | 1007.9 |
| 20260504011428 | 11 | 0 | 0.0 | 1.6 | 0.00 | 0.00 | 0.00 | 43 | 1007.8 |
| 20260504011227 | 11 | 0 | 0.0 | 1.6 | 0.00 | 0.00 | 0.00 | 42 | 1007.8 |
| 20260504011027 | 11 | 0 | 0.0 | 3.2 | 0.00 | 0.00 | 0.00 | 42 | 1007.8 |
| 20260504010827 | 11 | 0 | 0.0 | 3.2 | 0.00 | 0.00 | 0.00 | 42 | 1007.8 |
| 20260504010628 | 11 | 0 | 1.6 | 3.2 | 0.00 | 0.00 | 0.00 | 42 | 1007.8 |
| 20260504010427 | 11 | 0 | 1.6 | 3.2 | 0.00 | 0.00 | 0.00 | 42 | 1007.8 |
| 20260504010227 | 11 | 272 | 1.6 | 3.2 | 0.00 | 0.00 | 0.00 | 42 | 1007.7 |
| 20260504010028 | 11 | 212 | 1.6 | 3.2 | 0.00 | 0.00 | 0.00 | 42 | 1007.7 |
| 20260504005828 | 11 | 0 | 1.6 | 3.2 | 0.00 | 0.00 | 0.00 | 42 | 1007.7 |
| 20260504005628 | 11 | 208 | 1.6 | 3.2 | 0.00 | 0.00 | 0.00 | 42 | 1007.6 |
| 20260504005428 | 11 | 199 | 1.6 | 3.2 | 0.00 | 0.00 | 0.00 | 40 | 1007.6 |
| 20260504005228 | 11 | 202 | 1.6 | 3.2 | 0.00 | 0.00 | 0.00 | 40 | 1007.6 |
| 20260504005028 | 11 | 231 | 0.0 | 3.2 | 0.00 | 0.00 | 0.00 | 41 | 1007.6 |
| 20260504004828 | 11 | 242 | 0.0 | 3.2 | 0.00 | 0.00 | 0.00 | 41 | 1007.6 |
| 20260504004628 | 11 | 220 | 0.0 | 1.6 | 0.00 | 0.00 | 0.00 | 42 | 1007.6 |
| 20260504004428 | 12 | 277 | 0.0 | 1.6 | 0.00 | 0.00 | 0.00 | 41 | 1007.5 |
| 20260504004228 | 12 | 0 | 0.0 | 3.2 | 0.00 | 0.00 | 0.00 | 41 | 1007.5 |
| 20260504004027 | 12 | 0 | 0.0 | 3.2 | 0.00 | 0.00 | 0.00 | 40 | 1007.5 |
| 20260504003828 | 12 | 0 | 1.6 | 3.2 | 0.00 | 0.00 | 0.00 | 41 | 1007.4 |
| 20260504003628 | 12 | 0 | 1.6 | 3.2 | 0.00 | 0.00 | 0.00 | 41 | 1007.4 |
| 20260504003427 | 12 | 231 | 1.6 | 3.2 | 0.00 | 0.00 | 0.00 | 39 | 1007.4 |
| 20260504003256 | 12 | 244 | 1.6 | 3.2 | 0.00 | 0.00 | 0.00 | 39 | 1007.4 |
| 20260504003026 | 12 | 211 | 0.0 | 3.2 | 0.00 | 0.00 | 0.00 | 39 | 1007.3 |
| 20260504002825 | 12 | 224 | 0.0 | 3.2 | 0.00 | 0.00 | 0.00 | 38 | 1007.3 |
| 20260504002622 | 12 | 254 | 0.0 | 3.2 | 0.00 | 0.00 | 0.00 | 38 | 1007.2 |
| 20260504002421 | 12 | 0 | 0.0 | 3.2 | 0.00 | 0.00 | 0.00 | 37 | 1007.2 |
| 20260504002220 | 12 | 0 | 0.0 | 3.2 | 0.00 | 0.00 | 0.00 | 38 | 1007.2 |
| 20260504002020 | 12 | 0 | 0.0 | 3.2 | 0.00 | 0.00 | 0.00 | 37 | 1007.1 |
| 20260504001818 | 12 | 241 | 1.6 | 3.2 | 0.00 | 0.00 | 0.00 | 37 | 1007.1 |
| 20260504001618 | 12 | 236 | 0.0 | 3.2 | 0.00 | 0.00 | 0.00 | 37 | 1007.1 |
| 20260504001418 | 12 | 199 | 0.0 | 6.4 | 0.00 | 0.00 | 0.00 | 37 | 1007.1 |
| 20260504001218 | 12 | 0 | 1.6 | 6.4 | 0.00 | 0.00 | 0.00 | 37 | 1007.1 |
| 20260504001018 | 13 | 231 | 1.6 | 6.4 | 0.00 | 0.00 | 0.00 | 37 | 1007.1 |
| 20260504000815 | 13 | 0 | 1.6 | 6.4 | 0.00 | 0.00 | 0.00 | 37 | 1007.0 |
| 20260504000611 | 13 | 256 | 3.2 | 6.4 | 0.00 | 0.00 | 0.00 | 36 | 1007.0 |
| 20260504000409 | 13 | 236 | 3.2 | 6.4 | 0.00 | 0.00 | 0.00 | 36 | 1007.0 |
| 20260504000209 | 13 | 257 | 3.2 | 6.4 | 0.00 | 0.00 | 0.00 | 35 | 1006.9 |
| 20260504000009 | 13 | 241 | 3.2 | 6.4 | 0.00 | 0.00 | 0.00 | 35 | 1006.9 |
| 20260503235809 | 13 | 249 | 1.6 | 6.4 | 0.00 | 0.00 | 0.00 | 35 | 1006.9 |
| 20260503235610 | 13 | 243 | 1.6 | 4.8 | 0.00 | 0.00 | 0.00 | 35 | 1006.9 |
| 20260503235409 | 13 | 264 | 1.6 | 6.4 | 0.00 | 0.00 | 0.00 | 35 | 1006.9 |
| 20260503235209 | 13 | 283 | 1.6 | 6.4 | 0.00 | 0.00 | 0.00 | 35 | 1006.9 |
| 20260503235009 | 13 | 282 | 1.6 | 8.0 | 0.00 | 0.00 | 0.00 | 35 | 1006.8 |
| 20260503234809 | 13 | 286 | 1.6 | 8.0 | 0.00 | 0.00 | 0.00 | 34 | 1006.8 |
| 20260503234609 | 13 | 252 | 1.6 | 8.0 | 0.00 | 0.00 | 0.00 | 34 | 1006.8 |
| 20260503234409 | 13 | 248 | 3.2 | 8.0 | 0.00 | 0.00 | 0.00 | 34 | 1006.8 |
| 20260503234209 | 13 | 0 | 3.2 | 8.0 | 0.00 | 0.00 | 0.00 | 33 | 1006.8 |
| 20260503234009 | 13 | 215 | 3.2 | 8.0 | 0.00 | 0.00 | 0.00 | 34 | 1006.8 |
| 20260503233810 | 13 | 243 | 3.2 | 8.0 | 0.00 | 0.00 | 0.00 | 33 | 1006.7 |
| 20260503233609 | 13 | 262 | 3.2 | 8.0 | 0.00 | 0.00 | 0.00 | 33 | 1006.7 |
| 20260503233407 | 13 | 305 | 1.6 | 6.4 | 0.00 | 0.00 | 0.00 | 33 | 1006.7 |
| 20260503233206 | 13 | 293 | 3.2 | 14.5 | 0.00 | 0.00 | 0.00 | 33 | 1006.6 |
| 20260503233006 | 14 | 177 | 3.2 | 14.5 | 0.00 | 0.00 | 0.00 | 33 | 1006.6 |
| 20260503232806 | 14 | 0 | 3.2 | 14.5 | 0.00 | 0.00 | 0.00 | 33 | 1006.6 |
| 20260503232606 | 14 | 0 | 3.2 | 14.5 | 0.00 | 0.00 | 0.00 | 32 | 1006.6 |
| 20260503232404 | 14 | 244 | 3.2 | 14.5 | 0.00 | 0.00 | 0.00 | 31 | 1006.6 |
| 20260503232203 | 14 | 232 | 3.2 | 12.9 | 0.00 | 0.00 | 0.00 | 32 | 1006.5 |
| 20260503232004 | 14 | 196 | 3.2 | 11.3 | 0.00 | 0.00 | 0.00 | 32 | 1006.5 |
| 20260503231801 | 14 | 237 | 3.2 | 9.7 | 0.00 | 0.00 | 0.00 | 32 | 1006.5 |
| 20260503231601 | 14 | 239 | 3.2 | 6.4 | 0.00 | 0.00 | 0.00 | 32 | 1006.5 |
| 20260503231401 | 14 | 288 | 3.2 | 6.4 | 0.00 | 0.00 | 0.00 | 32 | 1006.5 |
| 20260503231201 | 14 | 243 | 3.2 | 8.0 | 0.00 | 0.00 | 0.00 | 32 | 1006.4 |
| 20260503230959 | 14 | 194 | 3.2 | 11.3 | 0.00 | 0.00 | 0.00 | 32 | 1006.4 |
| 20260503230759 | 14 | 208 | 3.2 | 11.3 | 0.00 | 0.00 | 0.00 | 32 | 1006.4 |
| 20260503230559 | 14 | 345 | 3.2 | 11.3 | 0.00 | 0.00 | 0.00 | 31 | 1006.4 |
| 20260503230359 | 14 | 65 | 3.2 | 11.3 | 0.00 | 0.00 | 0.00 | 31 | 1006.4 |
| 20260503230159 | 14 | 283 | 3.2 | 11.3 | 0.00 | 0.00 | 0.00 | 31 | 1006.4 |
| 20260503225958 | 15 | 199 | 3.2 | 9.7 | 0.00 | 0.00 | 0.00 | 31 | 1006.4 |
| 20260503225759 | 15 | 254 | 3.2 | 9.7 | 0.00 | 0.00 | 0.00 | 30 | 1006.4 |
| 20260503225600 | 15 | 242 | 3.2 | 9.7 | 0.00 | 0.00 | 0.00 | 30 | 1006.4 |
| 20260503225359 | 15 | 245 | 3.2 | 9.7 | 0.00 | 0.00 | 0.00 | 31 | 1006.4 |
| 20260503225159 | 15 | 284 | 3.2 | 12.9 | 0.00 | 0.00 | 0.00 | 30 | 1006.4 |
| 20260503224959 | 15 | 349 | 3.2 | 12.9 | 0.00 | 0.00 | 0.00 | 30 | 1006.4 |
| 20260503224759 | 15 | 40 | 4.8 | 12.9 | 0.00 | 0.00 | 0.00 | 30 | 1006.4 |
| 20260503224559 | 15 | 299 | 4.8 | 14.5 | 0.00 | 0.00 | 0.00 | 30 | 1006.4 |
| 20260503224359 | 15 | 8 | 4.8 | 14.5 | 0.00 | 0.00 | 0.00 | 30 | 1006.4 |
| 20260503224159 | 15 | 165 | 4.8 | 14.5 | 0.00 | 0.00 | 0.00 | 30 | 1006.4 |
| 20260503223959 | 15 | 35 | 3.2 | 14.5 | 0.00 | 0.00 | 0.00 | 30 | 1006.3 |
| 20260503223759 | 15 | 262 | 3.2 | 14.5 | 0.00 | 0.00 | 0.00 | 29 | 1006.3 |
| 20260503223600 | 15 | 232 | 3.2 | 8.0 | 0.00 | 0.00 | 0.00 | 30 | 1006.3 |
| 20260503223359 | 15 | 147 | 3.2 | 11.3 | 0.00 | 0.00 | 0.00 | 30 | 1006.4 |
| 20260503223159 | 15 | 215 | 3.2 | 11.3 | 0.00 | 0.00 | 0.00 | 30 | 1006.3 |
| 20260503222959 | 15 | 27 | 3.2 | 11.3 | 0.00 | 0.00 | 0.00 | 29 | 1006.3 |
| 20260503222759 | 15 | 321 | 3.2 | 12.9 | 0.00 | 0.00 | 0.00 | 30 | 1006.3 |
| 20260503222559 | 15 | 32 | 3.2 | 12.9 | 0.00 | 0.00 | 0.00 | 29 | 1006.3 |
| 20260503222400 | 15 | 232 | 3.2 | 14.5 | 0.00 | 0.00 | 0.00 | 30 | 1006.3 |
| 20260503222200 | 15 | 323 | 3.2 | 14.5 | 0.00 | 0.00 | 0.00 | 30 | 1006.3 |
| 20260503222000 | 15 | 248 | 3.2 | 14.5 | 0.00 | 0.00 | 0.00 | 30 | 1006.2 |
| 20260503221800 | 15 | 112 | 3.2 | 14.5 | 0.00 | 0.00 | 0.00 | 30 | 1006.2 |
| 20260503221559 | 15 | 168 | 3.2 | 14.5 | 0.00 | 0.00 | 0.00 | 29 | 1006.3 |
| 20260503221400 | 15 | 89 | 3.2 | 14.5 | 0.00 | 0.00 | 0.00 | 30 | 1006.2 |
| 20260503221200 | 15 | 340 | 3.2 | 14.5 | 0.00 | 0.00 | 0.00 | 30 | 1006.2 |
| 20260503220959 | 15 | 357 | 4.8 | 14.5 | 0.00 | 0.00 | 0.00 | 30 | 1006.3 |
| 20260503220759 | 15 | 270 | 4.8 | 14.5 | 0.00 | 0.00 | 0.00 | 29 | 1006.3 |
| 20260503220557 | 15 | 307 | 4.8 | 14.5 | 0.00 | 0.00 | 0.00 | 29 | 1006.3 |
| 20260503220352 | 16 | 273 | 4.8 | 12.9 | 0.00 | 0.00 | 0.00 | 29 | 1006.2 |
| 20260503220153 | 16 | 320 | 4.8 | 12.9 | 0.00 | 0.00 | 0.00 | 29 | 1006.2 |
| 20260503215952 | 16 | 306 | 4.8 | 11.3 | 0.00 | 0.00 | 0.00 | 30 | 1006.2 |
| 20260503215753 | 16 | 24 | 4.8 | 11.3 | 0.00 | 0.00 | 0.00 | 30 | 1006.2 |
| 20260503215553 | 16 | 353 | 4.8 | 14.5 | 0.00 | 0.00 | 0.00 | 29 | 1006.2 |
| 20260503215349 | 15 | 231 | 4.8 | 14.5 | 0.00 | 0.00 | 0.00 | 30 | 1006.3 |
| 20260503215150 | 15 | 333 | 4.8 | 16.1 | 0.00 | 0.00 | 0.00 | 30 | 1006.3 |
| 20260503214950 | 15 | 21 | 6.4 | 16.1 | 0.00 | 0.00 | 0.00 | 30 | 1006.2 |
| 20260503214750 | 15 | 323 | 6.4 | 16.1 | 0.00 | 0.00 | 0.00 | 30 | 1006.3 |
| 20260503214550 | 15 | 4 | 8.0 | 16.1 | 0.00 | 0.00 | 0.00 | 30 | 1006.2 |
| 20260503214347 | 15 | 226 | 6.4 | 16.1 | 0.00 | 0.00 | 0.00 | 30 | 1006.1 |
| 20260503214147 | 15 | 245 | 6.4 | 16.1 | 0.00 | 0.00 | 0.00 | 30 | 1006.1 |
| 20260503213947 | 15 | 295 | 6.4 | 16.1 | 0.00 | 0.00 | 0.00 | 30 | 1006.1 |
| 20260503213744 | 15 | 253 | 4.8 | 14.5 | 0.00 | 0.00 | 0.00 | 30 | 1006.1 |
| 20260503213544 | 15 | 321 | 4.8 | 14.5 | 0.00 | 0.00 | 0.00 | 30 | 1006.1 |
| 20260503213344 | 15 | 235 | 4.8 | 14.5 | 0.00 | 0.00 | 0.00 | 30 | 1006.0 |
| 20260503213144 | 15 | 13 | 4.8 | 14.5 | 0.00 | 0.00 | 0.00 | 30 | 1006.0 |
| 20260503212944 | 15 | 226 | 4.8 | 16.1 | 0.00 | 0.00 | 0.00 | 31 | 1006.0 |
| 20260503212744 | 15 | 310 | 4.8 | 16.1 | 0.00 | 0.00 | 0.00 | 31 | 1006.0 |
| 20260503212544 | 15 | 45 | 4.8 | 16.1 | 0.00 | 0.00 | 0.00 | 30 | 1006.0 |
| 20260503212344 | 15 | 327 | 4.8 | 16.1 | 0.00 | 0.00 | 0.00 | 31 | 1006.0 |
| 20260503212145 | 15 | 331 | 4.8 | 16.1 | 0.00 | 0.00 | 0.00 | 30 | 1006.0 |
| 20260503211944 | 15 | 341 | 4.8 | 14.5 | 0.00 | 0.00 | 0.00 | 31 | 1006.0 |
| 20260503211744 | 15 | 250 | 4.8 | 14.5 | 0.00 | 0.00 | 0.00 | 30 | 1005.9 |
| 20260503211545 | 15 | 8 | 3.2 | 14.5 | 0.00 | 0.00 | 0.00 | 31 | 1006.0 |
| 20260503211240 | 15 | 246 | 4.8 | 11.3 | 0.00 | 0.00 | 0.00 | 31 | 1006.0 |
| 20260503210945 | 15 | 184 | 4.8 | 11.3 | 0.00 | 0.00 | 0.00 | 31 | 1006.1 |
| 20260503210744 | 15 | 29 | 4.8 | 11.3 | 0.00 | 0.00 | 0.00 | 31 | 1006.0 |
| 20260503210544 | 15 | 333 | 4.8 | 11.3 | 0.00 | 0.00 | 0.00 | 31 | 1006.0 |
| 20260503210344 | 15 | 256 | 4.8 | 14.5 | 0.00 | 0.00 | 0.00 | 30 | 1005.9 |
| 20260503210144 | 15 | 28 | 4.8 | 14.5 | 0.00 | 0.00 | 0.00 | 31 | 1006.1 |
| 20260503205942 | 15 | 329 | 4.8 | 14.5 | 0.00 | 0.00 | 0.00 | 30 | 1006.0 |
| 20260503205742 | 15 | 64 | 4.8 | 16.1 | 0.00 | 0.00 | 0.00 | 31 | 1006.0 |
| 20260503205538 | 15 | 341 | 4.8 | 16.1 | 0.00 | 0.00 | 0.00 | 31 | 1006.0 |
| 20260503205339 | 15 | 337 | 4.8 | 16.1 | 0.00 | 0.00 | 0.00 | 32 | 1006.0 |
| 20260503205234 | 15 | 59 | 4.8 | 16.1 | 0.00 | 0.00 | 0.00 | 30 | 1006.0 |
| 20260503204936 | 15 | 31 | 4.8 | 16.1 | 0.00 | 0.00 | 0.00 | 30 | 1006.0 |
| 20260503204736 | 15 | 250 | 4.8 | 14.5 | 0.00 | 0.00 | 0.00 | 31 | 1005.9 |
| 20260503204535 | 15 | 346 | 4.8 | 14.5 | 0.00 | 0.00 | 0.00 | 31 | 1006.0 |
| 20260503204336 | 15 | 357 | 4.8 | 14.5 | 0.00 | 0.00 | 0.00 | 31 | 1005.9 |
| 20260503204136 | 15 | 304 | 4.8 | 14.5 | 0.00 | 0.00 | 0.00 | 31 | 1005.9 |
| 20260503203936 | 15 | 283 | 4.8 | 14.5 | 0.00 | 0.00 | 0.00 | 31 | 1006.0 |
| 20260503203736 | 15 | 237 | 4.8 | 12.9 | 0.00 | 0.00 | 0.00 | 32 | 1005.9 |
| 20260503203537 | 15 | 77 | 4.8 | 11.3 | 0.00 | 0.00 | 0.00 | 31 | 1005.9 |
| 20260503203336 | 15 | 71 | 4.8 | 11.3 | 0.00 | 0.00 | 0.00 | 32 | 1006.0 |
| 20260503203234 | 15 | 327 | 4.8 | 11.3 | 0.00 | 0.00 | 0.00 | 33 | 1006.0 |
| 20260503202936 | 15 | 9 | 4.8 | 14.5 | 0.00 | 0.00 | 0.00 | 33 | 1006.0 |
| 20260503202736 | 15 | 259 | 4.8 | 14.5 | 0.00 | 0.00 | 0.00 | 32 | 1006.0 |
| 20260503202537 | 15 | 111 | 4.8 | 14.5 | 0.00 | 0.00 | 0.00 | 32 | 1005.9 |
| 20260503202335 | 15 | 354 | 4.8 | 14.5 | 0.00 | 0.00 | 0.00 | 33 | 1006.2 |
| 20260503202234 | 15 | 161 | 6.4 | 14.5 | 0.00 | 0.00 | 0.00 | 32 | 1006.1 |
| 20260503201937 | 15 | 15 | 6.4 | 14.5 | 0.00 | 0.00 | 0.00 | 33 | 1006.0 |
| 20260503201736 | 15 | 319 | 6.4 | 14.5 | 0.00 | 0.00 | 0.00 | 32 | 1006.0 |
| 20260503201536 | 15 | 45 | 4.8 | 16.1 | 0.00 | 0.00 | 0.00 | 32 | 1006.1 |
| 20260503201336 | 15 | 277 | 6.4 | 17.7 | 0.00 | 0.00 | 0.00 | 33 | 1006.1 |
| 20260503201136 | 15 | 343 | 4.8 | 17.7 | 0.00 | 0.00 | 0.00 | 33 | 1006.1 |
| 20260503200936 | 15 | 238 | 4.8 | 17.7 | 0.00 | 0.00 | 0.00 | 34 | 1006.0 |
| 20260503200736 | 15 | 324 | 6.4 | 17.7 | 0.00 | 0.00 | 0.00 | 33 | 1006.1 |
| 20260503200537 | 15 | 97 | 4.8 | 17.7 | 0.00 | 0.00 | 0.00 | 33 | 1006.2 |
| 20260503200337 | 15 | 217 | 4.8 | 19.3 | 0.00 | 0.00 | 0.00 | 34 | 1006.1 |
| 20260503200136 | 15 | 17 | 4.8 | 19.3 | 0.00 | 0.00 | 0.00 | 33 | 1006.1 |
| 20260503195937 | 15 | 285 | 6.4 | 20.9 | 0.00 | 0.00 | 0.00 | 34 | 1006.0 |
| 20260503195734 | 15 | 241 | 6.4 | 20.9 | 0.00 | 0.00 | 0.00 | 34 | 1006.0 |
| 20260503195534 | 14 | 47 | 6.4 | 20.9 | 0.00 | 0.00 | 0.00 | 34 | 1006.0 |
| 20260503195333 | 14 | 23 | 4.8 | 20.9 | 0.00 | 0.00 | 0.00 | 34 | 1006.2 |
| 20260503195134 | 14 | 307 | 4.8 | 20.9 | 0.00 | 0.00 | 0.00 | 34 | 1006.3 |